Hourly Weather Ondjiwa

Today, 29 October, Thursday

Time Temperature Precipitation Wind Pressure Humidity
00:00 +25°C° 0.1 mm 4 mps 666 mmHg 46%
01:00 +22°C° 0 mm 3 mps 666 mmHg 51%
02:00 +21°C° 0.1 mm 3 mps 666 mmHg 53%
03:00 +21°C° 0.1 mm 2 mps 666 mmHg 55%
04:00 +20°C° 0.1 mm 2 mps 666 mmHg 56%
05:00 +21°C° 0 mm 2 mps 666 mmHg 49%
06:00 +23°C° 0 mm 2 mps 667 mmHg 42%
07:00 +24°C° 0 mm 3 mps 668 mmHg 35%
08:00 +26°C° 0 mm 2 mps 668 mmHg 32%
09:00 +29°C° 0 mm 2 mps 668 mmHg 29%
10:00 +32°C° 0 mm 2 mps 669 mmHg 26%
11:00 +35°C° 0 mm 2 mps 668 mmHg 24%
12:00 +36°C° 0 mm 1 mps 667 mmHg 21%
13:00 +39°C° 0 mm 1 mps 667 mmHg 19%
14:00 +39°C° 0 mm 2 mps 666 mmHg 18%
15:00 +39°C° 0 mm 2 mps 666 mmHg 18%
16:00 +38°C° 0 mm 2 mps 665 mmHg 18%
17:00 +36°C° 0 mm 2 mps 665 mmHg 22%
18:00 +34°C° 0 mm 2 mps 665 mmHg 25%
19:00 +31°C° 0 mm 2 mps 665 mmHg 29%
20:00 +30°C° 0 mm 2 mps 665 mmHg 31%
21:00 +30°C° 0 mm 3 mps 666 mmHg 33%
22:00 +29°C° 0 mm 3 mps 667 mmHg 35%
23:00 +28°C° 0.2 mm 3 mps 666 mmHg 37%

Tomorrow, 30 October, Friday

Time Temperature Precipitation Wind Pressure Humidity
00:00 +27°C° 0.2 mm 2 mps 666 mmHg 39%
01:00 +26°C° 0.2 mm 2 mps 666 mmHg 41%
02:00 +26°C° 0.2 mm 2 mps 666 mmHg 42%
03:00 +25°C° 0.2 mm 1 mps 666 mmHg 43%
04:00 +24°C° 0.2 mm 1 mps 666 mmHg 44%
05:00 +25°C° 0.2 mm 1 mps 667 mmHg 44%
06:00 +25°C° 0.2 mm 1 mps 667 mmHg 44%
07:00 +26°C° 0.2 mm 2 mps 668 mmHg 44%
08:00 +29°C° 0.1 mm 2 mps 668 mmHg 40%
09:00 +31°C° 0.1 mm 2 mps 669 mmHg 36%
10:00 +35°C° 0.1 mm 2 mps 669 mmHg 32%
11:00 +36°C° 0 mm 2 mps 668 mmHg 28%
12:00 +37°C° 0 mm 3 mps 668 mmHg 25%
13:00 +38°C° 0 mm 3 mps 667 mmHg 22%
14:00 +38°C° 0 mm 3 mps 667 mmHg 22%
15:00 +37°C° 0 mm 3 mps 666 mmHg 22%
16:00 +37°C° 0 mm 2 mps 666 mmHg 22%
17:00 +35°C° 0.3 mm 2 mps 666 mmHg 28%
18:00 +32°C° 0.3 mm 2 mps 666 mmHg 33%
19:00 +29°C° 0.3 mm 2 mps 666 mmHg 39%
20:00 +29°C° 0.3 mm 1 mps 666 mmHg 41%
21:00 +28°C° 0.3 mm 1 mps 667 mmHg 43%
22:00 +28°C° 0.3 mm 1 mps 667 mmHg 45%
23:00 +27°C° 0.9 mm 2 mps 667 mmHg 49%

Day after tomorrow, 31 October, Saturday

Time Temperature Precipitation Wind Pressure Humidity
00:00 +26°C° 0.9 mm 2 mps 667 mmHg 54%
01:00 +25°C° 0.9 mm 3 mps 666 mmHg 58%
02:00 +25°C° 0 mm 3 mps 666 mmHg 59%
03:00 +25°C° 0 mm 2 mps 666 mmHg 60%
04:00 +24°C° 0 mm 2 mps 666 mmHg 61%
05:00 +25°C° 0.1 mm 2 mps 667 mmHg 58%
06:00 +25°C° 0.1 mm 2 mps 667 mmHg 55%
07:00 +26°C° 0.1 mm 1 mps 668 mmHg 52%
08:00 +28°C° 0 mm 2 mps 668 mmHg 45%
09:00 +30°C° 0 mm 3 mps 668 mmHg 38%
10:00 +33°C° 0 mm 3 mps 668 mmHg 32%
11:00 +35°C° 0 mm 3 mps 668 mmHg 28%
12:00 +37°C° 0 mm 2 mps 667 mmHg 24%
13:00 +39°C° 0 mm 2 mps 667 mmHg 20%
14:00 +39°C° 0 mm 2 mps 667 mmHg 20%
15:00 +38°C° 0 mm 2 mps 666 mmHg 20%
16:00 +38°C° 0 mm 2 mps 666 mmHg 20%
17:00 +36°C° 0 mm 2 mps 666 mmHg 23%
18:00 +34°C° 0 mm 2 mps 665 mmHg 27%
19:00 +31°C° 0 mm 1 mps 665 mmHg 30%
20:00 +31°C° 0.1 mm 2 mps 666 mmHg 31%
21:00 +30°C° 0.1 mm 2 mps 666 mmHg 33%
22:00 +30°C° 0.1 mm 2 mps 666 mmHg 34%
23:00 +29°C° 0 mm 3 mps 666 mmHg 36%

1 November, Sunday

Time Temperature Precipitation Wind Pressure Humidity
00:00 +28°C° 0 mm 3 mps 666 mmHg 37%
01:00 +28°C° 0 mm 4 mps 666 mmHg 39%
02:00 +27°C° 0 mm 3 mps 666 mmHg 42%
03:00 +26°C° 0 mm 2 mps 666 mmHg 44%
04:00 +25°C° 0 mm 1 mps 665 mmHg 46%
05:00 +26°C° 0 mm 2 mps 666 mmHg 42%
06:00 +26°C° 0 mm 3 mps 666 mmHg 38%
07:00 +27°C° 0 mm 3 mps 667 mmHg 34%
08:00 +29°C° 0 mm 3 mps 667 mmHg 29%
09:00 +33°C° 0 mm 3 mps 667 mmHg 25%
10:00 +35°C° 0 mm 3 mps 667 mmHg 20%
11:00 +36°C° 0 mm 3 mps 667 mmHg 19%
12:00 +37°C° 0 mm 3 mps 666 mmHg 17%
13:00 +39°C° 0 mm 3 mps 666 mmHg 16%
14:00 +39°C° 0 mm 3 mps 665 mmHg 15%
15:00 +39°C° 0 mm 3 mps 665 mmHg 15%
16:00 +39°C° 0 mm 3 mps 665 mmHg 14%
17:00 +37°C° 0 mm 3 mps 664 mmHg 16%
18:00 +36°C° 0 mm 2 mps 664 mmHg 18%
19:00 +34°C° 0 mm 2 mps 664 mmHg 20%
20:00 +32°C° 0 mm 2 mps 665 mmHg 21%
21:00 +31°C° 0 mm 2 mps 665 mmHg 23%
22:00 +30°C° 0 mm 2 mps 666 mmHg 24%
23:00 +30°C° 0 mm 2 mps 666 mmHg 23%

2 November, Monday

Time Temperature Precipitation Wind Pressure Humidity
00:00 +29°C° 0 mm 3 mps 666 mmHg 22%
01:00 +29°C° 0 mm 4 mps 666 mmHg 21%
02:00 +28°C° 0 mm 3 mps 665 mmHg 22%
03:00 +27°C° 0 mm 3 mps 665 mmHg 22%
04:00 +25°C° 0 mm 2 mps 665 mmHg 23%
05:00 +26°C° 0 mm 3 mps 665 mmHg 21%
06:00 +27°C° 0 mm 3 mps 666 mmHg 19%
07:00 +27°C° 0 mm 4 mps 667 mmHg 17%
08:00 +29°C° 0 mm 4 mps 667 mmHg 16%
09:00 +31°C° 0 mm 3 mps 667 mmHg 15%
10:00 +34°C° 0 mm 3 mps 667 mmHg 14%
11:00 +36°C° 0 mm 3 mps 667 mmHg 14%
12:00 +37°C° 0 mm 3 mps 666 mmHg 14%
13:00 +39°C° 0 mm 3 mps 666 mmHg 14%
14:00 +40°C° 0 mm 4 mps 665 mmHg 14%
15:00 +38°C° 0 mm 4 mps 665 mmHg 14%
16:00 +38°C° 0 mm 4 mps 664 mmHg 14%
17:00 +37°C° 0 mm 4 mps 664 mmHg 16%
18:00 +35°C° 0 mm 3 mps 664 mmHg 17%
19:00 +33°C° 0 mm 3 mps 664 mmHg 18%
20:00 +31°C° 0 mm 3 mps 665 mmHg 20%
21:00 +30°C° 0 mm 4 mps 665 mmHg 22%
22:00 +30°C° 0 mm 5 mps 666 mmHg 23%
23:00 +28°C° 0 mm 4 mps 666 mmHg 25%

3 November, Tuesday

Time Temperature Precipitation Wind Pressure Humidity
00:00 +27°C° 0 mm 3 mps 666 mmHg 26%
01:00 +26°C° 0 mm 2 mps 666 mmHg 27%
02:00 +25°C° 0 mm 2 mps 666 mmHg 29%
03:00 +24°C° 0 mm 2 mps 666 mmHg 30%
04:00 +24°C° 0 mm 2 mps 666 mmHg 32%
05:00 +25°C° 0 mm 2 mps 667 mmHg 30%
06:00 +26°C° 0 mm 2 mps 667 mmHg 29%
07:00 +27°C° 0 mm 2 mps 668 mmHg 27%
08:00 +29°C° 0 mm 3 mps 668 mmHg 25%
09:00 +31°C° 0 mm 3 mps 668 mmHg 22%
10:00 +34°C° 0 mm 3 mps 669 mmHg 19%
11:00 +35°C° 0 mm 3 mps 668 mmHg 18%
12:00 +37°C° 0 mm 3 mps 668 mmHg 16%
13:00 +38°C° 0 mm 3 mps 667 mmHg 15%
14:00 +38°C° 0 mm 3 mps 666 mmHg 15%
15:00 +38°C° 0 mm 4 mps 666 mmHg 15%
16:00 +38°C° 0 mm 4 mps 665 mmHg 14%
17:00 +36°C° 0 mm 3 mps 665 mmHg 16%
18:00 +34°C° 0 mm 3 mps 665 mmHg 18%
19:00 +31°C° 0 mm 3 mps 665 mmHg 20%
20:00 +32°C° 0 mm 4 mps 666 mmHg 21%
21:00 +30°C° 0 mm 5 mps 667 mmHg 21%
22:00 +30°C° 0 mm 6 mps 667 mmHg 21%
23:00 +29°C° 0 mm 5 mps 667 mmHg 23%
Show more